FENGYUN 1C DEB

Satellite information

Favourite Embed

Satellite Type and Status

DEBRISIN ORBIT

Key statistics

Satellite FENGYUN 1C DEB at a glance.

Uptime

9659

Days in orbit

Revolutions

≈ 14.4

Per day

Orbit

SSO

Sun Synchronous Orbit

Inclination

98.9

Latest

Satellite identification and parameters

Extended collection of information and parameters for FENGYUN 1C DEB.

Object identification

Identified? True

Debris? True

Object name: FENGYUN 1C DEB

International designator: 1999-025ASR

Object number (NORAD): 30731

Object ID (CCSDS): 30731

Country: PEOPLES REPUBLIC OF CHINA (PRC)

Current information (Y/N): Y

RCS size: SMALL

Orbital parameters

Period: 99.953 minutes

Inclination: 98.8629 deg

SMA: 7134.394 km

Apoapsis: 766.137 km

Periapsis: 746.381 km

RAAN: 8.2871 deg

Eccentricy: 0.0013846

Argument of periapsis: 64.0314 deg

Mean anomaly: 356.608 deg

Mean motion: 14.40678612 rev/day

Mean motion (dot): 0.00010333 rev/day2

B* drag term: 0.0032421646 1/REarth

Two-line elements (TLE)

Creation date: Oct. 18, 2025, 2:17 a.m.

Reference frame: TEME

Reference center: EARTH

Epoch: Oct. 17, 2025, 9:49 p.m. UTC

TLE line 0: 0 FENGYUN 1C DEB

TLE line 1: 1 30731U 99025ASR 25290.90924882 .00010333 00000-0 32422-2 0 9994

TLE line 2: 2 30731 98.8629 8.2871 0013846 64.0314 356.6080 14.40678612965528

Live tracking on map

Real-time ground track for satellite FENGYUN 1C DEB.

In-orbit conjunctions

A list of the most updated potential collisions computed for object FENGYUN 1C DEB.

Target Orbit TCA Probability of collision Miss distance Type
FENGYUN 1C DEB SSO 2025-07-19 21:45:04 0.0001149616 244.0 (m) DEBRIS
COSMOS 676 LEO 2025-04-22 11:18:18 0.000283135 491.0 (m) PAYLOAD
SL-8 R/B LEO 2025-02-22 23:22:33 0.0001275124 468.0 (m) ROCKET BODY
DELTA 1 DEB SSO 2024-12-16 11:45:38 0.0001801446 84.0 (m) DEBRIS
COSMOS 1275 DEB LEO 2024-11-16 00:39:06 0.0006751403 385.0 (m) DEBRIS

Associated space launch

Chinese polar orbiting meteorological satellite

FENGYUN 1C DEB was lifted into orbit during the mission ‘Long March 4B | Feng Yun 1C’, on board a Long March 4B space rocket.

The launch took place on May 10, 1999, 1:33 a.m. from Launch Complex 7.

For more information about the launch, click the button.

Launch to space Long March 4B | Feng Yun 1C
Long March 4B | Feng Yun 1C

Agency: N/A

Status: Launch Successful

Launch date: May 10, 1999, 1:33 a.m. UTC

Rocket: Long March 4B

Launch pad: Launch Complex 7

Location: Taiyuan Satellite Launch Center, People's Republic of China

...

Latest news about this satellite

There are no fresh news available about this satellite. Check back as we update our databases every day.


Newsletter sign-up

Weekly statistics, charts and insights to help you stay on top of the space industry.